Time,TemperatureF,DewpointF,PressureIn,WindDirection,WindDirectionDegrees,WindSpeedMPH,WindSpeedGustMPH,Humidity,HourlyPrecipIn,Conditions,Clouds,dailyrainin,SoftwareType,DateUTC
2013-03-20 00:02:00,30.0,18.0,30.16,WSW,250,5.0,8.0,61,0.00,,,0.00,,2013-03-20 05:02:00,
2013-03-20 00:12:00,30.0,18.0,30.16,WSW,250,5.0,8.0,61,0.00,,,0.00,,2013-03-20 05:12:00,
2013-03-20 00:23:00,30.0,18.0,30.16,WSW,250,5.0,8.0,61,0.00,,,0.00,,2013-03-20 05:23:00,
2013-03-20 00:32:00,29.0,20.0,30.16,WSW,253,4.0,7.0,70,0.00,,,0.00,,2013-03-20 05:32:00,
2013-03-20 00:42:00,29.0,20.0,30.16,WSW,253,4.0,7.0,70,0.00,,,0.00,,2013-03-20 05:42:00,
2013-03-20 00:53:00,29.0,20.0,30.16,WSW,253,4.0,7.0,70,0.00,,,0.00,,2013-03-20 05:53:00,
2013-03-20 01:02:00,28.0,19.0,30.14,West,271,3.0,6.0,69,0.00,,,0.00,,2013-03-20 06:02:00,
2013-03-20 01:12:00,28.0,19.0,30.14,West,271,3.0,6.0,69,0.00,,,0.00,,2013-03-20 06:12:00,
2013-03-20 01:22:00,29.0,19.0,30.15,WNW,296,3.0,7.0,66,0.00,,,0.00,,2013-03-20 06:22:00,
2013-03-20 01:32:00,29.0,19.0,30.15,NW,316,6.0,9.0,65,0.00,,,0.00,,2013-03-20 06:32:00,
2013-03-20 01:42:00,29.0,19.0,30.15,NW,316,6.0,9.0,65,0.00,,,0.00,,2013-03-20 06:42:00,
2013-03-20 01:52:00,29.0,18.0,30.15,NW,307,6.0,10.0,64,0.00,,,0.00,,2013-03-20 06:52:00,
2013-03-20 02:02:00,28.0,19.0,30.15,NW,321,6.0,12.0,68,0.00,,,0.00,,2013-03-20 07:02:00,
2013-03-20 02:12:00,28.0,19.0,30.15,NW,321,6.0,12.0,68,0.00,,,0.00,,2013-03-20 07:12:00,
2013-03-20 02:22:00,27.0,19.0,30.15,WNW,302,7.0,10.0,71,0.00,,,0.00,,2013-03-20 07:22:00,
2013-03-20 02:32:00,27.0,20.0,30.15,NW,304,5.0,9.0,73,0.00,,,0.00,,2013-03-20 07:32:00,
2013-03-20 02:42:00,27.0,20.0,30.15,NW,304,5.0,9.0,73,0.00,,,0.00,,2013-03-20 07:42:00,
2013-03-20 02:52:00,27.0,20.0,30.15,NW,307,5.0,8.0,74,0.00,,,0.00,,2013-03-20 07:52:00,
2013-03-20 03:02:00,27.0,20.0,30.15,WNW,293,5.0,8.0,75,0.00,,,0.00,,2013-03-20 08:02:00,
2013-03-20 03:12:00,27.0,20.0,30.15,WNW,293,5.0,8.0,75,0.00,,,0.00,,2013-03-20 08:12:00,
2013-03-20 03:22:00,27.0,20.0,30.15,WNW,293,5.0,8.0,75,0.00,,,0.00,,2013-03-20 08:22:00,
2013-03-20 03:32:00,27.0,20.0,30.14,NW,314,7.0,13.0,74,0.00,,,0.00,,2013-03-20 08:32:00,
2013-03-20 03:42:00,27.0,20.0,30.14,NW,314,7.0,13.0,74,0.00,,,0.00,,2013-03-20 08:42:00,
2013-03-20 03:52:00,26.0,19.0,30.14,WNW,302,6.0,10.0,75,0.00,,,0.00,,2013-03-20 08:52:00,
2013-03-20 04:02:00,26.0,20.0,30.14,NW,316,7.0,11.0,77,0.00,,,0.00,,2013-03-20 09:02:00,
2013-03-20 04:12:00,26.0,20.0,30.14,NW,316,7.0,11.0,77,0.00,,,0.00,,2013-03-20 09:12:00,
2013-03-20 04:22:00,26.0,20.0,30.14,NW,309,6.0,11.0,77,0.00,,,0.00,,2013-03-20 09:22:00,
2013-03-20 04:33:00,26.0,20.0,30.14,WNW,298,7.0,12.0,77,0.00,,,0.00,,2013-03-20 09:33:00,
2013-03-20 04:43:00,26.0,20.0,30.14,WNW,298,7.0,12.0,77,0.00,,,0.00,,2013-03-20 09:43:00,
2013-03-20 04:52:00,26.0,19.0,30.14,WNW,290,11.0,19.0,76,0.00,,,0.00,,2013-03-20 09:52:00,
2013-03-20 05:03:00,26.0,19.0,30.14,WNW,303,10.0,18.0,75,0.00,,,0.00,,2013-03-20 10:03:00,
2013-03-20 05:12:00,26.0,19.0,30.14,WNW,303,10.0,18.0,75,0.00,,,0.00,,2013-03-20 10:12:00,
2013-03-20 05:23:00,25.0,19.0,30.14,NW,313,11.0,20.0,76,0.00,,,0.00,,2013-03-20 10:23:00,
2013-03-20 05:32:00,25.0,19.0,30.14,WNW,303,10.0,16.0,76,0.00,,,0.00,,2013-03-20 10:32:00,
2013-03-20 05:42:00,25.0,19.0,30.14,WNW,303,10.0,16.0,76,0.00,,,0.00,,2013-03-20 10:42:00,
2013-03-20 05:52:00,24.0,18.0,30.15,WNW,296,7.0,18.0,77,0.00,,,0.00,,2013-03-20 10:52:00,
2013-03-20 06:03:00,24.0,19.0,30.16,WNW,301,8.0,14.0,80,0.00,,,0.00,,2013-03-20 11:03:00,
2013-03-20 06:12:00,24.0,19.0,30.16,WNW,301,8.0,14.0,80,0.00,,,0.00,,2013-03-20 11:12:00,
2013-03-20 06:22:00,24.0,18.0,30.16,NW,324,9.0,17.0,77,0.00,,,0.00,,2013-03-20 11:22:00,
2013-03-20 06:32:00,23.0,17.0,30.17,NW,315,10.0,17.0,77,0.00,,,0.00,,2013-03-20 11:32:00,
2013-03-20 06:42:00,23.0,17.0,30.17,NW,315,10.0,17.0,77,0.00,,,0.00,,2013-03-20 11:42:00,
2013-03-20 06:52:00,22.0,16.0,30.18,NW,314,13.0,22.0,76,0.00,,,0.00,,2013-03-20 11:52:00,
2013-03-20 07:02:00,21.0,14.0,30.18,NNW,346,14.0,25.0,73,0.00,,,0.00,,2013-03-20 12:02:00,
2013-03-20 07:12:00,21.0,14.0,30.18,NNW,346,14.0,25.0,73,0.00,,,0.00,,2013-03-20 12:12:00,
2013-03-20 07:22:00,18.0,9.0,30.19,NNW,342,13.0,22.0,66,0.00,,,0.00,,2013-03-20 12:22:00,
2013-03-20 07:32:00,18.0,9.0,30.19,NW,321,12.0,22.0,68,0.00,,,0.00,,2013-03-20 12:32:00,
2013-03-20 07:42:00,18.0,9.0,30.19,NW,321,12.0,22.0,68,0.00,,,0.00,,2013-03-20 12:42:00,
2013-03-20 07:52:00,18.0,10.0,30.20,NW,318,10.0,20.0,69,0.00,,,0.00,,2013-03-20 12:52:00,
2013-03-20 08:03:00,18.0,8.0,30.21,NNW,333,16.0,31.0,65,0.00,,,0.00,,2013-03-20 13:03:00,
2013-03-20 08:12:00,18.0,8.0,30.21,NNW,333,16.0,31.0,65,0.00,,,0.00,,2013-03-20 13:12:00,
2013-03-20 08:22:00,18.0,8.0,30.21,WNW,296,12.0,27.0,65,0.00,,,0.00,,2013-03-20 13:22:00,
2013-03-20 08:32:00,18.0,9.0,30.21,NW,323,11.0,23.0,68,0.00,,,0.00,,2013-03-20 13:32:00,
2013-03-20 08:42:00,18.0,9.0,30.21,NW,323,11.0,23.0,68,0.00,,,0.00,,2013-03-20 13:42:00,
2013-03-20 08:52:00,19.0,10.0,30.21,NW,311,14.0,26.0,66,0.00,,,0.00,,2013-03-20 13:52:00,
2013-03-20 09:03:00,19.0,7.0,30.22,NW,311,14.0,27.0,60,0.00,,,0.00,,2013-03-20 14:03:00,
2013-03-20 09:12:00,19.0,7.0,30.22,NW,311,14.0,27.0,60,0.00,,,0.00,,2013-03-20 14:12:00,
2013-03-20 09:23:00,19.0,9.0,30.21,NW,323,11.0,20.0,63,0.00,,,0.00,,2013-03-20 14:23:00,
2013-03-20 09:33:00,19.0,10.0,30.21,NW,307,10.0,21.0,68,0.00,,,0.00,,2013-03-20 14:33:00,
2013-03-20 09:42:00,19.0,10.0,30.21,NW,307,10.0,21.0,68,0.00,,,0.00,,2013-03-20 14:42:00,
2013-03-20 09:52:00,19.0,9.0,30.22,NW,307,13.0,20.0,63,0.00,,,0.00,,2013-03-20 14:52:00,
2013-03-20 10:02:00,20.0,8.0,30.21,NW,321,14.0,24.0,60,0.00,,,0.00,,2013-03-20 15:02:00,
2013-03-20 10:12:00,20.0,8.0,30.22,WNW,303,15.0,23.0,60,0.00,,,0.00,,2013-03-20 15:12:00,
2013-03-20 10:22:00,20.0,8.0,30.22,WNW,303,15.0,23.0,60,0.00,,,0.00,,2013-03-20 15:22:00,
2013-03-20 10:33:00,20.0,8.0,30.22,WNW,298,13.0,25.0,60,0.00,,,0.00,,2013-03-20 15:33:00,
2013-03-20 10:43:00,20.0,8.0,30.22,WNW,298,13.0,25.0,60,0.00,,,0.00,,2013-03-20 15:43:00,
2013-03-20 10:52:00,21.0,9.0,30.22,NW,311,15.0,23.0,58,0.00,,,0.00,,2013-03-20 15:52:00,
2013-03-20 11:03:00,21.0,9.0,30.21,WNW,291,15.0,22.0,58,0.00,,,0.00,,2013-03-20 16:03:00,
2013-03-20 11:12:00,21.0,9.0,30.21,WNW,291,15.0,22.0,58,0.00,,,0.00,,2013-03-20 16:12:00,
2013-03-20 11:23:00,22.0,9.0,30.21,WNW,289,14.0,22.0,56,0.00,,,0.00,,2013-03-20 16:23:00,
2013-03-20 11:33:00,22.0,9.0,30.22,NW,311,12.0,21.0,56,0.00,,,0.00,,2013-03-20 16:33:00,
2013-03-20 11:42:00,22.0,9.0,30.22,NW,311,12.0,21.0,56,0.00,,,0.00,,2013-03-20 16:42:00,
2013-03-20 11:52:00,23.0,9.0,30.21,WNW,282,14.0,22.0,54,0.00,,,0.00,,2013-03-20 16:52:00,
2013-03-20 12:03:00,23.0,9.0,30.21,West,281,15.0,23.0,55,0.00,,,0.00,,2013-03-20 17:03:00,
2013-03-20 12:12:00,23.0,9.0,30.21,West,281,15.0,23.0,55,0.00,,,0.00,,2013-03-20 17:12:00,
2013-03-20 12:22:00,23.0,8.0,30.21,WNW,295,14.0,23.0,53,0.00,,,0.00,,2013-03-20 17:22:00,
2013-03-20 12:32:00,23.0,7.0,30.20,WNW,298,14.0,23.0,50,0.00,,,0.00,,2013-03-20 17:32:00,
2013-03-20 12:42:00,23.0,7.0,30.20,WNW,298,14.0,23.0,50,0.00,,,0.00,,2013-03-20 17:42:00,
2013-03-20 12:52:00,25.0,9.0,30.20,West,277,13.0,27.0,49,0.00,,,0.00,,2013-03-20 17:52:00,
2013-03-20 13:02:00,25.0,8.0,30.19,WNW,286,12.0,23.0,47,0.00,,,0.00,,2013-03-20 18:02:00,
2013-03-20 13:12:00,25.0,8.0,30.19,WNW,286,12.0,23.0,47,0.00,,,0.00,,2013-03-20 18:12:00,
2013-03-20 13:22:00,25.0,8.0,30.19,NW,311,11.0,23.0,48,0.00,,,0.00,,2013-03-20 18:22:00,
2013-03-20 13:33:00,25.0,8.0,30.19,WNW,298,13.0,22.0,48,0.00,,,0.00,,2013-03-20 18:33:00,
2013-03-20 13:42:00,25.0,8.0,30.19,WNW,298,13.0,22.0,48,0.00,,,0.00,,2013-03-20 18:42:00,
2013-03-20 13:52:00,26.0,9.0,30.18,West,273,14.0,23.0,47,0.00,,,0.00,,2013-03-20 18:52:00,
2013-03-20 14:02:00,26.0,8.0,30.17,NW,305,15.0,24.0,46,0.00,,,0.00,,2013-03-20 19:02:00,
2013-03-20 14:12:00,26.0,8.0,30.17,NW,305,15.0,24.0,46,0.00,,,0.00,,2013-03-20 19:12:00,
2013-03-20 14:22:00,27.0,9.0,30.16,West,271,12.0,23.0,47,0.00,,,0.00,,2013-03-20 19:22:00,
2013-03-20 14:32:00,27.0,9.0,30.16,NW,314,13.0,24.0,45,0.00,,,0.00,,2013-03-20 19:32:00,
2013-03-20 14:42:00,27.0,9.0,30.16,NW,314,13.0,24.0,45,0.00,,,0.00,,2013-03-20 19:42:00,
2013-03-20 14:52:00,27.0,9.0,30.15,NW,307,14.0,20.0,45,0.00,,,0.00,,2013-03-20 19:52:00,
2013-03-20 15:02:00,27.0,8.0,30.14,NW,320,15.0,25.0,43,0.00,,,0.00,,2013-03-20 20:02:00,
2013-03-20 15:13:00,27.0,8.0,30.14,NW,320,15.0,25.0,43,0.00,,,0.00,,2013-03-20 20:13:00,
2013-03-20 15:22:00,28.0,9.0,30.14,WNW,295,14.0,26.0,45,0.00,,,0.00,,2013-03-20 20:22:00,
2013-03-20 15:32:00,28.0,9.0,30.13,WNW,291,16.0,26.0,44,0.00,,,0.00,,2013-03-20 20:32:00,
2013-03-20 15:42:00,28.0,9.0,30.13,WNW,291,16.0,26.0,44,0.00,,,0.00,,2013-03-20 20:42:00,
2013-03-20 15:52:00,28.0,9.0,30.14,NW,305,14.0,28.0,45,0.00,,,0.00,,2013-03-20 20:52:00,
2013-03-20 16:02:00,28.0,9.0,30.13,NW,309,14.0,23.0,45,0.00,,,0.00,,2013-03-20 21:02:00,
2013-03-20 16:12:00,28.0,9.0,30.13,NW,309,14.0,23.0,45,0.00,,,0.00,,2013-03-20 21:12:00,
2013-03-20 16:22:00,29.0,10.0,30.12,West,272,16.0,28.0,45,0.00,,,0.00,,2013-03-20 21:22:00,
2013-03-20 16:33:00,28.0,9.0,30.12,WNW,300,15.0,27.0,44,0.00,,,0.00,,2013-03-20 21:33:00,
2013-03-20 16:42:00,28.0,9.0,30.12,WNW,300,15.0,27.0,44,0.00,,,0.00,,2013-03-20 21:42:00,
2013-03-20 16:52:00,28.0,9.0,30.12,WNW,301,13.0,23.0,45,0.00,,,0.00,,2013-03-20 21:52:00,
2013-03-20 17:03:00,29.0,11.0,30.12,WNW,295,14.0,28.0,46,0.00,,,0.00,,2013-03-20 22:03:00,
2013-03-20 17:12:00,29.0,11.0,30.12,WNW,295,14.0,28.0,46,0.00,,,0.00,,2013-03-20 22:12:00,
2013-03-20 17:23:00,28.0,10.0,30.12,WNW,287,15.0,27.0,47,0.00,,,0.00,,2013-03-20 22:23:00,
2013-03-20 17:33:00,29.0,10.0,30.12,WNW,294,15.0,27.0,44,0.00,,,0.00,,2013-03-20 22:33:00,
2013-03-20 17:42:00,29.0,10.0,30.12,WNW,294,15.0,27.0,44,0.00,,,0.00,,2013-03-20 22:42:00,
2013-03-20 17:52:00,28.0,10.0,30.12,WNW,294,17.0,31.0,46,0.00,,,0.00,,2013-03-20 22:52:00,
2013-03-20 18:02:00,28.0,10.0,30.13,WNW,293,13.0,30.0,47,0.00,,,0.00,,2013-03-20 23:02:00,
2013-03-20 18:12:00,28.0,10.0,30.13,WNW,293,13.0,30.0,47,0.00,,,0.00,,2013-03-20 23:12:00,
2013-03-20 18:22:00,27.0,9.0,30.12,NW,308,14.0,25.0,46,0.00,,,0.00,,2013-03-20 23:22:00,
2013-03-20 18:32:00,27.0,10.0,30.13,WNW,295,15.0,23.0,48,0.00,,,0.00,,2013-03-20 23:32:00,
2013-03-20 18:42:00,27.0,10.0,30.13,WNW,295,15.0,23.0,48,0.00,,,0.00,,2013-03-20 23:42:00,
2013-03-20 18:52:00,26.0,9.0,30.13,NW,306,14.0,23.0,49,0.00,,,0.00,,2013-03-20 23:52:00,
2013-03-20 19:02:00,26.0,10.0,30.13,WNW,302,12.0,19.0,51,0.00,,,0.00,,2013-03-21 00:02:00,
2013-03-20 19:12:00,26.0,10.0,30.13,WNW,302,12.0,19.0,51,0.00,,,0.00,,2013-03-21 00:12:00,
2013-03-20 19:23:00,25.0,10.0,30.13,WNW,302,11.0,20.0,53,0.00,,,0.00,,2013-03-21 00:23:00,
2013-03-20 19:32:00,25.0,10.0,30.13,WNW,296,10.0,21.0,53,0.00,,,0.00,,2013-03-21 00:32:00,
2013-03-20 19:42:00,25.0,10.0,30.13,WNW,296,10.0,21.0,53,0.00,,,0.00,,2013-03-21 00:42:00,
2013-03-20 19:52:00,25.0,11.0,30.13,WNW,303,11.0,22.0,54,0.00,,,0.00,,2013-03-21 00:52:00,
2013-03-20 20:02:00,24.0,10.0,30.13,WNW,288,12.0,19.0,54,0.00,,,0.00,,2013-03-21 01:02:00,
2013-03-20 20:12:00,24.0,10.0,30.13,WNW,288,12.0,19.0,54,0.00,,,0.00,,2013-03-21 01:12:00,
2013-03-20 20:22:00,24.0,10.0,30.13,NW,324,10.0,20.0,55,0.00,,,0.00,,2013-03-21 01:22:00,
2013-03-20 20:32:00,24.0,10.0,30.13,WNW,297,11.0,20.0,55,0.00,,,0.00,,2013-03-21 01:32:00,
2013-03-20 20:42:00,24.0,10.0,30.13,WNW,297,11.0,20.0,55,0.00,,,0.00,,2013-03-21 01:42:00,
2013-03-20 20:52:00,24.0,11.0,30.13,NW,314,9.0,16.0,57,0.00,,,0.00,,2013-03-21 01:52:00,
2013-03-20 21:02:00,23.0,11.0,30.13,WNW,288,9.0,17.0,59,0.00,,,0.00,,2013-03-21 02:02:00,
2013-03-20 21:12:00,23.0,11.0,30.13,WNW,288,9.0,17.0,59,0.00,,,0.00,,2013-03-21 02:12:00,
2013-03-20 21:22:00,23.0,11.0,30.13,NNW,331,8.0,13.0,59,0.00,,,0.00,,2013-03-21 02:22:00,
2013-03-20 21:32:00,23.0,11.0,30.13,NW,313,9.0,13.0,60,0.00,,,0.00,,2013-03-21 02:32:00,
2013-03-20 21:42:00,23.0,11.0,30.13,NW,313,9.0,13.0,60,0.00,,,0.00,,2013-03-21 02:42:00,
2013-03-20 21:51:00,23.0,11.0,30.13,NW,313,9.0,13.0,60,0.00,,,0.00,,2013-03-21 02:51:00,
2013-03-20 22:02:00,22.0,11.0,30.12,NW,321,7.0,11.0,63,0.00,,,0.00,,2013-03-21 03:02:00,
2013-03-20 22:12:00,22.0,11.0,30.12,NW,321,7.0,11.0,63,0.00,,,0.00,,2013-03-21 03:12:00,
2013-03-20 22:22:00,22.0,11.0,30.12,NW,326,8.0,13.0,63,0.00,,,0.00,,2013-03-21 03:22:00,
2013-03-20 22:33:00,22.0,11.0,30.12,NW,315,9.0,15.0,63,0.00,,,0.00,,2013-03-21 03:33:00,
2013-03-20 22:43:00,22.0,11.0,30.12,NW,315,9.0,15.0,63,0.00,,,0.00,,2013-03-21 03:43:00,
2013-03-20 22:53:00,22.0,12.0,30.12,NW,323,8.0,12.0,66,0.00,,,0.00,,2013-03-21 03:53:00,
2013-03-20 23:03:00,21.0,11.0,30.12,NW,313,8.0,13.0,66,0.00,,,0.00,,2013-03-21 04:03:00,
2013-03-20 23:13:00,21.0,11.0,30.12,NW,313,8.0,13.0,66,0.00,,,0.00,,2013-03-21 04:13:00,
2013-03-20 23:23:00,21.0,11.0,30.12,NW,317,7.0,12.0,66,0.00,,,0.00,,2013-03-21 04:23:00,
2013-03-20 23:33:00,21.0,12.0,30.12,WNW,299,8.0,12.0,68,0.00,,,0.00,,2013-03-21 04:33:00,
2013-03-20 23:43:00,21.0,12.0,30.12,WNW,299,8.0,12.0,68,0.00,,,0.00,,2013-03-21 04:43:00,
2013-03-20 23:53:00,21.0,12.0,30.12,NW,319,9.0,16.0,68,0.00,,,0.00,,2013-03-21 04:53:00,